Regional Weather Roundup
Issued by NWS

Home | Current Version | Previous Version | Text Only | Print | Product List | Glossary Off
Versions: 1 2 3 4 5 6 7 8 9 10 11 12 13 14 15 16 17 18 19 20 21 22 23 24 25 26 27 28 29 30 31 32 33 34 35 36 37 38 39 40 41 42 43 44 45 46 47 48 49 50

804
ASUS43 KTOP 251408
RWRKS

WEATHER ROUNDUP FOR KANSAS
NATIONAL WEATHER SERVICE GOODLAND KS
900 AM CDT THU MAY 25 2017

NOTE:  "FAIR" INDICATES FEW OR NO CLOUDS BELOW 12,000 FEET WITH NO
SIGNIFICANT WEATHER AND/OR OBSTRUCTIONS TO VISIBILITY.

KSZ001>006-013>018-027>032-041>047-251500-
NORTHWEST KANSAS

CITY           SKY/WX    TMP DP  RH WIND       PRES   REMARKS
GOODLAND       MOSUNNY   60  50  69 SW9       29.55R
HAYS           MOSUNNY   60  48  64 S16       29.57S
HILL CITY      MOSUNNY   60  47  61 S17G29    29.53F
RUSSELL        SUNNY     60  47  61 S24G33    29.55F
$$

KSZ061>065-074>080-084>089-251500-
SOUTHWEST KANSAS

CITY           SKY/WX    TMP DP  RH WIND       PRES   REMARKS
DODGE CITY     MOSUNNY   60  48  64 S21G31    29.55F
ELKHART          N/A     67  44  43 W9          N/A
GARDEN CITY    MOSUNNY   58  47  66 S21       29.53F
GREAT BEND     SUNNY     61  48  62 SE22G30   29.57F
LIBERAL        SUNNY     58  49  72 S9        29.56F
PRATT          MOSUNNY   56  44  63 S17G28    29.61R
$$

KSZ066>073-081>083-090>101-251500-
SOUTHEAST KANSAS

CITY           SKY/WX    TMP DP  RH WIND       PRES   REMARKS
CHANUTE        SUNNY     63  49  60 S14       29.72S
COFFEYVILLE    SUNNY     62  54  74 S9        29.74R
HUTCHINSON     SUNNY     61  47  59 SE17      29.63S
MEDICINE LODGE   N/A     60  47  61 S15G23    29.60S
NEWTON         SUNNY     61  46  57 S16       29.66S
PARSONS        SUNNY     63  49  60 S8        29.74S
WICHITA INTL   MOSUNNY   62  48  60 S17G25    29.64F
WICHITA JABRA  SUNNY     61  47  59 S17G28    29.65F
WICHITA MCCONL SUNNY     61  46  56 S16       29.65F
WINFIELD       SUNNY     62  48  60 SE16      29.68F
$$

KSZ007>012-019>026-033>040-048>060-102>105-251500-
NORTHEAST KANSAS

CITY           SKY/WX    TMP DP  RH WIND       PRES   REMARKS
CONCORDIA      LGT RAIN  60  47  61 S21G28    29.62S
EMPORIA        SUNNY     60  48  64 S16       29.69R
LAWRENCE       SUNNY     61  53  75 S9        29.71R
MANHATTAN      SUNNY     63  48  58 S15       29.66S
MARYSVILLE     SUNNY     59  50  72 S10       29.66S
OLATHE IND     SUNNY     61  51  70 S10       29.73R
OLATHE EXE     SUNNY     60  52  74 S9        29.72S
SALINA         SUNNY     63  47  55 S18G26    29.62F
TOPEKA BILLARD SUNNY     62  51  67 SE12      29.70S
TOPEKA FORBES  SUNNY     63  51  65 S10       29.69S
$$




USA.gov is the U.S. government's official web portal to all federal, state and local government web resources and services.